Location: ??
(34.7707°N, 135.6540°E)
Time: 18:26:56
(UTC+00:00)

Cosmos 1300 Rocket - Pass Details

Date: 09 April 2020
Orbit: 603 x 625 km, 82.5° (Epoch: 05 June)

Event Time Altitude Azimuth Distance (km) Brightness Sun altitude
Rises 18:30:34 0° 354° (N) 2,861 7.3 -24.3°
Reaches altitude 10° 18:32:47 10° 355° (N) 1,955 6.4 -23.9°
Maximum altitude 18:37:07 85° 85° (E) 613 3.4 -23.1°
Enters shadow 18:38:10 51° 168° (SSE) 761 3.8 -22.9°
